Back to Top

Language: 

My Weather Underground Personal Weather Station Historical Data with Graphs...

Delerius Weather Station Historical Data
Daily Summary for May 15, 2017 Units:  English    Metric   Both
« Previous Day
Next Day »
Daily Weekly Monthly Yearly Custom
  High: Low: Average:
Temperature: 61.0 °F 46.0 °F 54.9 °F
Dew Point: 58.3 °F 42.4 °F 51.6 °F
Humidity: 94 % 80 % 89 %
Wind Speed: 14.0 mph 0.0 mph 7.2 mph
Wind Gust: 30.0 mph - -
Wind:- - South
Pressure: 30.17 in 30.04 in -
Precipitation: 0.06 in    
Historical Graphs
 
 
Tabular Data for May 15, 2017
Time Temperature Dew Point Pressure Wind Wind Speed Wind Gust Humidity Rainfall Rate (Hourly) solar Conditions
00:01 47.5 °F 43.2 °F 30.17 in Calm     85 % 0.00 in 0 W/m2
00:06 47.5 °F 43.2 °F 30.17 in Calm     85 % 0.00 in 0 W/m2
00:11 47.3 °F 43.0 °F 30.17 in Calm     85 % 0.00 in 0 W/m2
00:16 47.1 °F 42.8 °F 30.17 in Calm     85 % 0.00 in 0 W/m2
00:21 47.1 °F 42.8 °F 30.17 in Calm     85 % 0.00 in 0 W/m2
00:26 47.1 °F 42.8 °F 30.17 in Calm     85 % 0.00 in 0 W/m2
00:31 47.1 °F 43.1 °F 30.16 in Calm   1.0 mph 86 % 0.00 in 0 W/m2
00:36 46.9 °F 42.7 °F 30.16 in Calm   1.0 mph 85 % 0.00 in 0 W/m2
00:41 46.9 °F 42.7 °F 30.16 in Calm     85 % 0.00 in 0 W/m2
00:46 46.9 °F 43.0 °F 30.16 in Calm     86 % 0.00 in 0 W/m2
00:51 46.9 °F 43.0 °F 30.17 in Calm     86 % 0.00 in 0 W/m2
00:56 46.9 °F 43.0 °F 30.17 in Calm     86 % 0.00 in 0 W/m2
01:02 46.8 °F 42.8 °F 30.17 in Calm     86 % 0.00 in 0 W/m2
01:07 46.8 °F 42.8 °F 30.17 in Calm     86 % 0.00 in 0 W/m2
01:12 46.6 °F 42.6 °F 30.17 in Calm     86 % 0.00 in 0 W/m2
01:17 46.6 °F 42.9 °F 30.17 in Calm     87 % 0.00 in 0 W/m2
01:22 46.6 °F 42.9 °F 30.17 in Calm     87 % 0.00 in 0 W/m2
01:27 46.6 °F 42.9 °F 30.17 in Calm     87 % 0.00 in 0 W/m2
01:32 46.6 °F 42.9 °F 30.17 in Calm     87 % 0.00 in 0 W/m2
01:37 46.4 °F 42.7 °F 30.17 in Calm     87 % 0.00 in 0 W/m2
01:42 46.2 °F 42.6 °F 30.16 in Calm     87 % 0.00 in 0 W/m2
01:47 46.2 °F 42.6 °F 30.16 in Calm     87 % 0.00 in 0 W/m2
01:52 46.0 °F 42.4 °F 30.17 in Calm     87 % 0.00 in 0 W/m2
01:57 46.0 °F 42.7 °F 30.16 in Calm   1.0 mph 88 % 0.00 in 0 W/m2
02:02 46.0 °F 42.7 °F 30.16 in Calm   1.0 mph 88 % 0.00 in 0 W/m2
02:07 46.0 °F 42.7 °F 30.16 in Calm     88 % 0.00 in 0 W/m2
02:12 46.4 °F 43.3 °F 30.16 in Calm   4.0 mph 89 % 0.00 in 0 W/m2
02:17 46.8 °F 43.4 °F 30.16 in Calm   4.0 mph 88 % 0.00 in 0 W/m2
02:22 46.9 °F 43.3 °F 30.16 in Calm   1.0 mph 87 % 0.00 in 0 W/m2
02:27 46.9 °F 43.3 °F 30.16 in Calm   1.0 mph 87 % 0.00 in 0 W/m2
02:32 46.9 °F 43.3 °F 30.16 in Calm   1.0 mph 87 % 0.00 in 0 W/m2
02:37 46.9 °F 43.0 °F 30.16 in Calm   2.0 mph 86 % 0.00 in 0 W/m2
02:42 46.9 °F 43.0 °F 30.16 in Calm   2.0 mph 86 % 0.00 in 0 W/m2
02:47 47.1 °F 43.4 °F 30.16 in SSW 1.0 mph 7.0 mph 87 % 0.00 in 0 W/m2
02:52 47.5 °F 43.5 °F 30.16 in SSW 1.0 mph 7.0 mph 86 % 0.00 in 0 W/m2
02:57 47.7 °F 43.7 °F 30.16 in SSW 2.0 mph 5.0 mph 86 % 0.00 in 0 W/m2
03:02 47.8 °F 43.9 °F 30.16 in South 3.0 mph 7.0 mph 86 % 0.00 in 0 W/m2
03:07 48.4 °F 44.1 °F 30.16 in South 4.0 mph 11.0 mph 85 % 0.00 in 0 W/m2
03:12 48.6 °F 43.9 °F 30.16 in South 4.0 mph 11.0 mph 84 % 0.00 in 0 W/m2
03:17 48.7 °F 43.8 °F 30.16 in SSE 4.0 mph 8.0 mph 83 % 0.00 in 0 W/m2
03:23 48.7 °F 43.8 °F 30.16 in SSE 4.0 mph 8.0 mph 83 % 0.00 in 0 W/m2
03:28 48.9 °F 44.0 °F 30.16 in SSE 4.0 mph 8.0 mph 83 % 0.00 in 0 W/m2
03:33 48.9 °F 43.7 °F 30.16 in SSE 4.0 mph 8.0 mph 82 % 0.00 in 0 W/m2
03:35 49.1 °F 43.8 °F 30.16 in SSE 4.0 mph 9.0 mph 82 % 0.00 in 0 W/m2
03:40 49.1 °F 43.8 °F 30.16 in SSE 5.0 mph 10.0 mph 82 % 0.00 in 0 W/m2
03:45 49.3 °F 43.7 °F 30.16 in SSE 5.0 mph 10.0 mph 81 % 0.00 in 0 W/m2
03:50 49.3 °F 43.7 °F 30.15 in SE 4.0 mph 7.0 mph 81 % 0.00 in 0 W/m2
03:56 49.3 °F 43.7 °F 30.15 in SE 4.0 mph 7.0 mph 81 % 0.00 in 0 W/m2
04:01 49.3 °F 43.7 °F 30.15 in SE 5.0 mph 8.0 mph 81 % 0.00 in 0 W/m2
04:06 49.5 °F 43.9 °F 30.15 in SE 6.0 mph 8.0 mph 81 % 0.00 in 0 W/m2
04:11 49.5 °F 43.9 °F 30.15 in SSE 6.0 mph 8.0 mph 81 % 0.00 in 0 W/m2
04:16 49.5 °F 43.9 °F 30.15 in SSE 6.0 mph 9.0 mph 81 % 0.00 in 0 W/m2
04:21 49.3 °F 43.7 °F 30.14 in SE 5.0 mph 9.0 mph 81 % 0.00 in 0 W/m2
04:26 49.3 °F 43.7 °F 30.14 in SE 5.0 mph 9.0 mph 81 % 0.00 in 0 W/m2
04:31 49.3 °F 43.7 °F 30.14 in SE 5.0 mph 9.0 mph 81 % 0.00 in 0 W/m2
04:36 49.3 °F 43.7 °F 30.14 in SE 5.0 mph 9.0 mph 81 % 0.00 in 0 W/m2
04:41 48.9 °F 43.7 °F 30.14 in SSE 5.0 mph 9.0 mph 82 % 0.00 in 0 W/m2
04:46 48.9 °F 43.7 °F 30.14 in SSE 4.0 mph 9.0 mph 82 % 0.00 in 0 W/m2
04:51 48.7 °F 43.8 °F 30.14 in SSE 4.0 mph 9.0 mph 83 % 0.00 in 0 W/m2
04:56 48.7 °F 43.8 °F 30.14 in SSE 5.0 mph 9.0 mph 83 % 0.00 in 0 W/m2
05:01 48.6 °F 43.9 °F 30.14 in SSE 4.0 mph 8.0 mph 84 % 0.00 in 0 W/m2
05:06 48.6 °F 43.9 °F 30.14 in South 4.0 mph 9.0 mph 84 % 0.00 in 7 W/m2
05:11 48.6 °F 43.9 °F 30.14 in SSE 5.0 mph 9.0 mph 84 % 0.00 in 11 W/m2
05:16 48.6 °F 44.3 °F 30.14 in SSE 5.0 mph 8.0 mph 85 % 0.00 in 16 W/m2
05:21 48.6 °F 44.3 °F 30.14 in SE 5.0 mph 8.0 mph 85 % 0.00 in 19 W/m2
05:26 48.6 °F 44.3 °F 30.14 in SE 4.0 mph 8.0 mph 85 % 0.00 in 21 W/m2
05:31 48.6 °F 44.3 °F 30.14 in SSE 4.0 mph 7.0 mph 85 % 0.00 in 21 W/m2
05:36 48.6 °F 44.6 °F 30.14 in SSE 3.0 mph 7.0 mph 86 % 0.00 in 19 W/m2
05:41 48.7 °F 44.7 °F 30.14 in SSE 2.0 mph 7.0 mph 86 % 0.00 in 26 W/m2
05:46 48.7 °F 44.7 °F 30.14 in SE 3.0 mph 7.0 mph 86 % 0.00 in 21 W/m2
05:51 48.9 °F 45.2 °F 30.14 in SE 3.0 mph 8.0 mph 87 % 0.00 in 26 W/m2
05:56 49.1 °F 45.4 °F 30.13 in SE 4.0 mph 8.0 mph 87 % 0.00 in 32 W/m2
06:01 49.3 °F 45.6 °F 30.14 in SE 3.0 mph 9.0 mph 87 % 0.00 in 37 W/m2
06:06 49.5 °F 45.8 °F 30.13 in SSE 3.0 mph 9.0 mph 87 % 0.00 in 35 W/m2
06:11 49.6 °F 45.6 °F 30.13 in SSE 4.0 mph 10.0 mph 86 % 0.00 in 33 W/m2
06:16 49.8 °F 45.5 °F 30.13 in SSE 6.0 mph 13.0 mph 85 % 0.00 in 26 W/m2
06:21 50.2 °F 45.5 °F 30.13 in South 7.0 mph 13.0 mph 84 % 0.00 in 32 W/m2
06:25 50.4 °F 45.4 °F 30.13 in South 7.0 mph 14.0 mph 83 % 0.00 in 39 W/m2
06:30 50.5 °F 45.2 °F 30.14 in South 8.0 mph 19.0 mph 82 % 0.00 in 30 W/m2
06:35 50.7 °F 45.1 °F 30.14 in South 9.0 mph 19.0 mph 81 % 0.00 in 32 W/m2
06:40 51.1 °F 45.5 °F 30.14 in South 10.0 mph 19.0 mph 81 % 0.00 in 40 W/m2
06:45 51.1 °F 45.5 °F 30.14 in South 11.0 mph 19.0 mph 81 % 0.00 in 44 W/m2
06:51 51.3 °F 45.6 °F 30.13 in South 9.0 mph 19.0 mph 81 % 0.00 in 67 W/m2
06:56 51.4 °F 45.5 °F 30.13 in South 9.0 mph 18.0 mph 80 % 0.00 in 72 W/m2
07:01 51.4 °F 45.5 °F 30.13 in South 9.0 mph 18.0 mph 80 % 0.00 in 79 W/m2
07:06 51.6 °F 45.7 °F 30.13 in South 9.0 mph 18.0 mph 80 % 0.00 in 84 W/m2
07:11 51.6 °F 45.7 °F 30.12 in South 10.0 mph 21.0 mph 80 % 0.00 in 67 W/m2
07:16 51.6 °F 46.0 °F 30.12 in South 10.0 mph 21.0 mph 81 % 0.00 in 91 W/m2
07:21 51.4 °F 46.1 °F 30.12 in SSE 10.0 mph 16.0 mph 82 % 0.00 in 125 W/m2
07:26 51.4 °F 46.4 °F 30.12 in South 10.0 mph 18.0 mph 83 % 0.00 in 134 W/m2
07:31 51.4 °F 46.4 °F 30.12 in South 10.0 mph 18.0 mph 83 % 0.00 in 116 W/m2
07:36 51.4 °F 46.8 °F 30.12 in SSE 10.0 mph 18.0 mph 84 % 0.00 in 141 W/m2
07:41 51.3 °F 46.9 °F 30.12 in SSE 11.0 mph 20.0 mph 85 % 0.00 in 165 W/m2
07:46 51.4 °F 47.1 °F 30.12 in SSE 10.0 mph 20.0 mph 85 % 0.00 in 165 W/m2
07:51 51.4 °F 47.1 °F 30.12 in SSE 9.0 mph 16.0 mph 85 % 0.00 in 156 W/m2
07:56 51.4 °F 47.4 °F 30.11 in SSE 9.0 mph 15.0 mph 86 % 0.00 in 167 W/m2
08:01 51.4 °F 47.4 °F 30.12 in SSE 10.0 mph 24.0 mph 86 % 0.00 in 130 W/m2
08:06 51.4 °F 47.4 °F 30.11 in SSE 9.0 mph 24.0 mph 86 % 0.00 in 128 W/m2
08:11 51.4 °F 47.4 °F 30.11 in South 8.0 mph 18.0 mph 86 % 0.00 in 120 W/m2
08:16 51.4 °F 47.7 °F 30.11 in South 8.0 mph 18.0 mph 87 % 0.00 in 104 W/m2
08:21 51.4 °F 47.7 °F 30.12 in South 8.0 mph 16.0 mph 87 % 0.00 in 104 W/m2
08:26 51.4 °F 47.7 °F 30.11 in South 7.0 mph 16.0 mph 87 % 0.00 in 95 W/m2
08:31 51.4 °F 47.7 °F 30.11 in South 7.0 mph 14.0 mph 87 % 0.00 in 90 W/m2
08:36 51.4 °F 47.7 °F 30.11 in SSE 8.0 mph 14.0 mph 87 % 0.00 in 114 W/m2
08:41 51.4 °F 47.7 °F 30.11 in South 9.0 mph 20.0 mph 87 % 0.00 in 130 W/m2
08:46 51.4 °F 48.0 °F 30.11 in South 9.0 mph 20.0 mph 88 % 0.00 in 163 W/m2
08:52 51.6 °F 48.2 °F 30.11 in South 8.0 mph 18.0 mph 88 % 0.00 in 163 W/m2
08:53 51.6 °F 48.5 °F 30.11 in South 8.0 mph 18.0 mph 89 % 0.00 in 155 W/m2
08:58 51.8 °F 48.4 °F 30.11 in South 8.0 mph 19.0 mph 88 % 0.00 in 169 W/m2
09:03 52.0 °F 48.8 °F 30.11 in South 10.0 mph 19.0 mph 89 % 0.00 in 167 W/m2
09:08 52.0 °F 48.8 °F 30.11 in SSE 10.0 mph 20.0 mph 89 % 0.00 in 169 W/m2
09:13 52.0 °F 48.8 °F 30.11 in South 10.0 mph 20.0 mph 89 % 0.00 in 121 W/m2
09:14 52.0 °F 48.8 °F 30.11 in South 10.0 mph 20.0 mph 89 % 0.00 in 128 W/m2
09:18 52.2 °F 49.3 °F 30.11 in SSE 9.0 mph 15.0 mph 90 % 0.00 in 130 W/m2
09:23 52.2 °F 49.3 °F 30.11 in SSE 8.0 mph 15.0 mph 90 % 0.00 in 171 W/m2
09:28 52.2 °F 49.3 °F 30.11 in SSE 7.0 mph 13.0 mph 90 % 0.01 in 178 W/m2
09:33 52.3 °F 49.8 °F 30.10 in SSE 9.0 mph 14.0 mph 91 % 0.01 in 160 W/m2
09:38 52.3 °F 49.8 °F 30.11 in SSE 9.0 mph 14.0 mph 91 % 0.01 in 146 W/m2
09:44 52.3 °F 50.1 °F 30.11 in South 8.0 mph 14.0 mph 92 % 0.01 in 120 W/m2
09:49 52.3 °F 50.1 °F 30.10 in SSE 7.0 mph 14.0 mph 92 % 0.02 in 134 W/m2
09:54 52.5 °F 50.3 °F 30.10 in SSE 5.0 mph 11.0 mph 92 % 0.02 in 128 W/m2
09:59 52.5 °F 50.3 °F 30.10 in SSE 6.0 mph 14.0 mph 92 % 0.02 in 137 W/m2
10:04 52.7 °F 50.7 °F 30.10 in SSE 6.0 mph 14.0 mph 93 % 0.02 in 123 W/m2
10:09 52.9 °F 50.9 °F 30.10 in SSE 7.0 mph 13.0 mph 93 % 0.02 in 90 W/m2
10:14 52.9 °F 50.9 °F 30.10 in SSE 7.0 mph 13.0 mph 93 % 0.02 in 98 W/m2
10:19 52.9 °F 50.9 °F 30.10 in South 7.0 mph 13.0 mph 93 % 0.02 in 109 W/m2
10:24 53.1 °F 51.1 °F 30.10 in South 7.0 mph 14.0 mph 93 % 0.01 in 121 W/m2
10:29 53.2 °F 51.3 °F 30.10 in South 8.0 mph 14.0 mph 93 % 0.01 in 127 W/m2
10:34 53.2 °F 51.3 °F 30.10 in South 9.0 mph 20.0 mph 93 % 0.02 in 142 W/m2
10:39 53.2 °F 51.3 °F 30.10 in SSE 9.0 mph 20.0 mph 93 % 0.02 in 100 W/m2
10:44 53.4 °F 51.7 °F 30.10 in SSE 8.0 mph 15.0 mph 94 % 0.02 in 107 W/m2
10:50 53.6 °F 51.6 °F 30.10 in South 8.0 mph 14.0 mph 93 % 0.01 in 137 W/m2
10:55 53.8 °F 52.1 °F 30.09 in South 8.0 mph 15.0 mph 94 % 0.01 in 146 W/m2
11:00 54.0 °F 52.3 °F 30.09 in South 9.0 mph 18.0 mph 94 % 0.01 in 142 W/m2
11:05 54.1 °F 52.2 °F 30.09 in South 8.0 mph 18.0 mph 93 % 0.01 in 90 W/m2
11:10 54.1 °F 52.5 °F 30.09 in SSE 7.0 mph 16.0 mph 94 % 0.01 in 83 W/m2
11:15 54.3 °F 52.6 °F 30.09 in SSE 7.0 mph 14.0 mph 94 % 0.01 in 91 W/m2
11:20 54.3 °F 52.6 °F 30.08 in SSE 7.0 mph 16.0 mph 94 % 0.01 in 107 W/m2
11:25 54.5 °F 52.8 °F 30.08 in SSE 8.0 mph 18.0 mph 94 % 0.01 in 98 W/m2
11:30 54.7 °F 53.0 °F 30.08 in SSE 8.0 mph 16.0 mph 94 % 0.00 in 107 W/m2
11:35 54.9 °F 53.2 °F 30.08 in South 8.0 mph 15.0 mph 94 % 0.00 in 123 W/m2
11:40 55.0 °F 53.3 °F 30.08 in South 8.0 mph 15.0 mph 94 % 0.00 in 97 W/m2
11:45 55.0 °F 53.3 °F 30.08 in SSE 9.0 mph 18.0 mph 94 % 0.00 in 98 W/m2
11:50 55.2 °F 53.5 °F 30.08 in South 9.0 mph 19.0 mph 94 % 0.00 in 123 W/m2
11:55 55.4 °F 53.7 °F 30.08 in South 8.0 mph 19.0 mph 94 % 0.00 in 132 W/m2
12:00 55.6 °F 53.9 °F 30.08 in SSE 8.0 mph 15.0 mph 94 % 0.00 in 130 W/m2
12:05 55.8 °F 54.1 °F 30.07 in SSE 8.0 mph 15.0 mph 94 % 0.00 in 127 W/m2
12:10 55.9 °F 54.2 °F 30.07 in South 8.0 mph 14.0 mph 94 % 0.00 in 123 W/m2
12:15 56.1 °F 54.1 °F 30.07 in South 10.0 mph 20.0 mph 93 % 0.00 in 178 W/m2
12:20 56.5 °F 54.5 °F 30.07 in South 10.0 mph 20.0 mph 93 % 0.01 in 123 W/m2
12:25 56.5 °F 54.5 °F 30.08 in South 9.0 mph 18.0 mph 93 % 0.01 in 98 W/m2
12:30 56.7 °F 54.7 °F 30.07 in South 9.0 mph 21.0 mph 93 % 0.01 in 132 W/m2
12:35 56.7 °F 54.4 °F 30.07 in South 11.0 mph 21.0 mph 92 % 0.01 in 120 W/m2
12:40 56.8 °F 54.5 °F 30.07 in South 12.0 mph 20.0 mph 92 % 0.01 in 107 W/m2
12:45 57.0 °F 54.7 °F 30.07 in South 12.0 mph 23.0 mph 92 % 0.01 in 121 W/m2
12:50 57.2 °F 54.9 °F 30.07 in South 10.0 mph 23.0 mph 92 % 0.01 in 179 W/m2
12:55 57.4 °F 54.8 °F 30.07 in SSW 9.0 mph 20.0 mph 91 % 0.01 in 199 W/m2
13:00 57.6 °F 55.0 °F 30.07 in SSW 10.0 mph 22.0 mph 91 % 0.01 in 183 W/m2
13:05 57.7 °F 55.1 °F 30.07 in SSW 11.0 mph 22.0 mph 91 % 0.01 in 192 W/m2
13:10 58.1 °F 55.5 °F 30.07 in South 10.0 mph 21.0 mph 91 % 0.01 in 141 W/m2
13:16 58.1 °F 55.2 °F 30.07 in South 9.0 mph 18.0 mph 90 % 0.01 in 141 W/m2
13:21 58.3 °F 55.4 °F 30.07 in South 9.0 mph 18.0 mph 90 % 0.00 in 149 W/m2
13:26 58.3 °F 55.4 °F 30.07 in South 9.0 mph 20.0 mph 90 % 0.00 in 163 W/m2
13:31 58.5 °F 55.5 °F 30.07 in South 9.0 mph 20.0 mph 90 % 0.00 in 202 W/m2
13:36 58.6 °F 55.7 °F 30.07 in South 8.0 mph 16.0 mph 90 % 0.00 in 183 W/m2
13:41 58.8 °F 55.9 °F 30.07 in SSW 9.0 mph 23.0 mph 90 % 0.00 in 188 W/m2
13:46 58.8 °F 55.9 °F 30.06 in SSW 9.0 mph 23.0 mph 90 % 0.00 in 221 W/m2
13:47 59.0 °F 55.8 °F 30.07 in SSW 10.0 mph 23.0 mph 89 % 0.00 in 248 W/m2
13:53 59.2 °F 55.9 °F 30.07 in SSW 11.0 mph 23.0 mph 89 % 0.00 in 227 W/m2
13:58 59.2 °F 55.9 °F 30.06 in SSW 12.0 mph 20.0 mph 89 % 0.00 in 250 W/m2
14:03 59.4 °F 55.8 °F 30.06 in South 12.0 mph 20.0 mph 88 % 0.00 in 246 W/m2
14:08 59.5 °F 56.0 °F 30.06 in South 13.0 mph 30.0 mph 88 % 0.00 in 262 W/m2
14:13 59.9 °F 56.3 °F 30.07 in SSW 12.0 mph 30.0 mph 88 % 0.00 in 246 W/m2
14:18 60.1 °F 56.5 °F 30.07 in SSW 12.0 mph 23.0 mph 88 % 0.00 in 225 W/m2
14:23 60.1 °F 56.2 °F 30.07 in SSW 14.0 mph 24.0 mph 87 % 0.00 in 237 W/m2
14:28 60.1 °F 56.2 °F 30.07 in South 14.0 mph 24.0 mph 87 % 0.00 in 148 W/m2
14:33 60.1 °F 56.2 °F 30.07 in SSW 12.0 mph 23.0 mph 87 % 0.00 in 102 W/m2
14:38 59.9 °F 56.0 °F 30.06 in SSW 12.0 mph 20.0 mph 87 % 0.00 in 193 W/m2
14:43 60.1 °F 56.2 °F 30.07 in SSW 12.0 mph 24.0 mph 87 % 0.00 in 151 W/m2
14:48 60.1 °F 56.2 °F 30.07 in SSW 12.0 mph 24.0 mph 87 % 0.00 in 197 W/m2
14:53 60.3 °F 56.7 °F 30.06 in SSW 10.0 mph 21.0 mph 88 % 0.00 in 227 W/m2
14:58 60.4 °F 56.6 °F 30.06 in SSW 9.0 mph 18.0 mph 87 % 0.00 in 216 W/m2
15:03 60.6 °F 56.7 °F 30.06 in SSW 8.0 mph 19.0 mph 87 % 0.00 in 218 W/m2
15:08 60.8 °F 56.9 °F 30.06 in SSW 9.0 mph 19.0 mph 87 % 0.00 in 255 W/m2
15:13 61.0 °F 56.8 °F 30.06 in SSW 11.0 mph 23.0 mph 86 % 0.00 in 220 W/m2
15:18 61.0 °F 57.1 °F 30.06 in SSW 11.0 mph 23.0 mph 87 % 0.00 in 171 W/m2
15:23 61.0 °F 57.1 °F 30.06 in SSW 9.0 mph 19.0 mph 87 % 0.00 in 176 W/m2
15:28 61.0 °F 57.1 °F 30.06 in SSW 9.0 mph 18.0 mph 87 % 0.00 in 167 W/m2
15:33 60.8 °F 57.2 °F 30.06 in SSW 10.0 mph 20.0 mph 88 % 0.00 in 172 W/m2
15:38 60.6 °F 57.0 °F 30.05 in SSW 11.0 mph 21.0 mph 88 % 0.00 in 176 W/m2
15:43 60.6 °F 57.0 °F 30.05 in SSW 11.0 mph 24.0 mph 88 % 0.00 in 146 W/m2
15:48 60.6 °F 57.0 °F 30.05 in SSW 12.0 mph 26.0 mph 88 % 0.00 in 151 W/m2
15:53 60.6 °F 57.0 °F 30.05 in SSW 12.0 mph 26.0 mph 88 % 0.00 in 148 W/m2
15:58 60.4 °F 56.9 °F 30.05 in SSW 11.0 mph 23.0 mph 88 % 0.00 in 132 W/m2
16:03 60.4 °F 56.9 °F 30.05 in SSW 10.0 mph 23.0 mph 88 % 0.00 in 123 W/m2
16:08 60.6 °F 57.4 °F 30.05 in SSW 10.0 mph 23.0 mph 89 % 0.00 in 142 W/m2
16:13 60.6 °F 57.4 °F 30.05 in SSW 11.0 mph 19.0 mph 89 % 0.00 in 121 W/m2
16:18 60.4 °F 57.2 °F 30.05 in SSW 11.0 mph 19.0 mph 89 % 0.00 in 135 W/m2
16:23 60.4 °F 57.2 °F 30.05 in SSW 10.0 mph 16.0 mph 89 % 0.00 in 135 W/m2
16:28 60.4 °F 57.2 °F 30.05 in SSW 10.0 mph 19.0 mph 89 % 0.00 in 120 W/m2
16:34 60.4 °F 57.2 °F 30.05 in SSW 10.0 mph 20.0 mph 89 % 0.00 in 116 W/m2
16:39 60.6 °F 57.7 °F 30.05 in SSW 8.0 mph 20.0 mph 90 % 0.00 in 116 W/m2
16:44 60.6 °F 57.4 °F 30.04 in SSW 9.0 mph 20.0 mph 89 % 0.00 in 98 W/m2
16:49 60.6 °F 57.7 °F 30.04 in SSW 11.0 mph 21.0 mph 90 % 0.00 in 93 W/m2
16:54 60.6 °F 57.7 °F 30.04 in SSW 12.0 mph 23.0 mph 90 % 0.00 in 88 W/m2
16:59 60.6 °F 57.7 °F 30.04 in SSW 11.0 mph 23.0 mph 90 % 0.00 in 91 W/m2
17:04 60.6 °F 57.7 °F 30.04 in SSW 11.0 mph 20.0 mph 90 % 0.00 in 88 W/m2
17:09 60.6 °F 57.7 °F 30.04 in SSW 12.0 mph 23.0 mph 90 % 0.00 in 86 W/m2
17:14 60.6 °F 58.0 °F 30.04 in SSW 12.0 mph 23.0 mph 91 % 0.00 in 81 W/m2
17:19 60.6 °F 58.0 °F 30.04 in SSW 10.0 mph 21.0 mph 91 % 0.00 in 77 W/m2
17:24 60.6 °F 58.0 °F 30.04 in SSW 10.0 mph 19.0 mph 91 % 0.00 in 98 W/m2
17:29 60.6 °F 58.0 °F 30.04 in SSW 11.0 mph 21.0 mph 91 % 0.00 in 90 W/m2
17:34 60.6 °F 58.0 °F 30.04 in SSW 12.0 mph 21.0 mph 91 % 0.00 in 84 W/m2
17:39 60.6 °F 58.0 °F 30.04 in SSW 11.0 mph 21.0 mph 91 % 0.01 in 72 W/m2
17:44 60.6 °F 58.3 °F 30.04 in SSW 10.0 mph 18.0 mph 92 % 0.02 in 63 W/m2
17:49 60.4 °F 58.1 °F 30.04 in SSW 10.0 mph 19.0 mph 92 % 0.02 in 58 W/m2
17:54 60.4 °F 58.1 °F 30.05 in SSW 10.0 mph 19.0 mph 92 % 0.02 in 51 W/m2
17:59 60.3 °F 57.9 °F 30.04 in SSW 11.0 mph 22.0 mph 92 % 0.02 in 49 W/m2
18:04 60.3 °F 57.9 °F 30.04 in SSW 11.0 mph 22.0 mph 92 % 0.02 in 47 W/m2
18:09 60.3 °F 57.9 °F 30.04 in SSW 10.0 mph 16.0 mph 92 % 0.02 in 47 W/m2
18:14 60.1 °F 58.0 °F 30.04 in SSW 10.0 mph 20.0 mph 93 % 0.02 in 40 W/m2
18:19 60.1 °F 58.0 °F 30.04 in SSW 11.0 mph 20.0 mph 93 % 0.02 in 39 W/m2
18:24 60.1 °F 58.0 °F 30.04 in SSW 10.0 mph 21.0 mph 93 % 0.02 in 35 W/m2
18:30 60.1 °F 58.0 °F 30.04 in SSW 9.0 mph 21.0 mph 93 % 0.02 in 32 W/m2
18:35 60.1 °F 58.0 °F 30.04 in SSW 10.0 mph 18.0 mph 93 % 0.02 in 35 W/m2
18:40 60.1 °F 58.0 °F 30.04 in SSW 9.0 mph 16.0 mph 93 % 0.02 in 33 W/m2
18:45 60.1 °F 58.0 °F 30.04 in SSW 8.0 mph 15.0 mph 93 % 0.01 in 33 W/m2
18:50 60.1 °F 58.0 °F 30.04 in SSW 7.0 mph 15.0 mph 93 % 0.01 in 33 W/m2
18:55 60.1 °F 58.0 °F 30.05 in South 7.0 mph 15.0 mph 93 % 0.01 in 32 W/m2
19:00 60.1 °F 58.0 °F 30.05 in SSW 6.0 mph 15.0 mph 93 % 0.01 in 28 W/m2
19:05 60.1 °F 58.0 °F 30.05 in SSW 7.0 mph 15.0 mph 93 % 0.01 in 26 W/m2
19:10 60.1 °F 58.0 °F 30.05 in South 6.0 mph 14.0 mph 93 % 0.01 in 26 W/m2
19:15 60.1 °F 58.0 °F 30.05 in SSW 7.0 mph 13.0 mph 93 % 0.01 in 30 W/m2
19:20 60.1 °F 58.0 °F 30.05 in South 7.0 mph 15.0 mph 93 % 0.01 in 30 W/m2
19:25 60.1 °F 58.0 °F 30.05 in South 7.0 mph 15.0 mph 93 % 0.00 in 30 W/m2
19:30 60.1 °F 57.7 °F 30.05 in South 8.0 mph 16.0 mph 92 % 0.00 in 28 W/m2
19:35 60.3 °F 57.9 °F 30.05 in South 8.0 mph 21.0 mph 92 % 0.00 in 33 W/m2
19:40 60.3 °F 57.9 °F 30.05 in South 8.0 mph 21.0 mph 92 % 0.00 in 35 W/m2
19:45 60.3 °F 57.9 °F 30.05 in South 8.0 mph 14.0 mph 92 % 0.00 in 35 W/m2
19:50 60.3 °F 57.9 °F 30.05 in South 7.0 mph 13.0 mph 92 % 0.00 in 32 W/m2
19:55 60.3 °F 57.9 °F 30.05 in South 7.0 mph 14.0 mph 92 % 0.00 in 32 W/m2
20:00 60.3 °F 57.9 °F 30.05 in SSW 7.0 mph 14.0 mph 92 % 0.00 in 30 W/m2
20:05 60.3 °F 57.9 °F 30.05 in SSW 7.0 mph 15.0 mph 92 % 0.00 in 28 W/m2
20:10 60.3 °F 57.9 °F 30.05 in SSW 7.0 mph 15.0 mph 92 % 0.00 in 25 W/m2
20:15 60.3 °F 57.9 °F 30.05 in SSW 7.0 mph 19.0 mph 92 % 0.00 in 25 W/m2
20:20 60.4 °F 58.1 °F 30.05 in SSW 10.0 mph 20.0 mph 92 % 0.00 in 21 W/m2
20:25 60.4 °F 58.1 °F 30.05 in SSW 10.0 mph 24.0 mph 92 % 0.00 in 19 W/m2
20:30 60.3 °F 57.9 °F 30.05 in SSW 9.0 mph 24.0 mph 92 % 0.00 in 16 W/m2
20:36 60.3 °F 57.9 °F 30.05 in SSW 8.0 mph 19.0 mph 92 % 0.00 in 12 W/m2
20:41 60.3 °F 57.9 °F 30.05 in SSW 7.0 mph 19.0 mph 92 % 0.00 in 9 W/m2
20:46 60.3 °F 57.9 °F 30.05 in SSW 7.0 mph 16.0 mph 92 % 0.00 in 7 W/m2
20:51 60.3 °F 57.9 °F 30.05 in SSW 7.0 mph 16.0 mph 92 % 0.00 in 5 W/m2
20:56 60.3 °F 57.9 °F 30.05 in SSW 8.0 mph 16.0 mph 92 % 0.00 in 0 W/m2
21:01 60.3 °F 57.9 °F 30.06 in SSW 8.0 mph 14.0 mph 92 % 0.00 in 0 W/m2
21:06 60.3 °F 57.9 °F 30.06 in SSW 7.0 mph 14.0 mph 92 % 0.00 in 0 W/m2
21:11 60.3 °F 57.9 °F 30.06 in SSW 7.0 mph 13.0 mph 92 % 0.00 in 0 W/m2
21:16 60.3 °F 57.9 °F 30.06 in SSW 6.0 mph 13.0 mph 92 % 0.00 in 0 W/m2
21:21 60.1 °F 57.7 °F 30.06 in SSW 6.0 mph 14.0 mph 92 % 0.00 in 0 W/m2
21:26 60.1 °F 57.7 °F 30.06 in SSW 7.0 mph 14.0 mph 92 % 0.01 in 0 W/m2
21:31 60.1 °F 57.7 °F 30.06 in SSW 8.0 mph 16.0 mph 92 % 0.01 in 0 W/m2
21:36 60.1 °F 57.7 °F 30.06 in SSW 8.0 mph 20.0 mph 92 % 0.01 in 0 W/m2
21:41 60.1 °F 57.7 °F 30.06 in SSW 9.0 mph 20.0 mph 92 % 0.01 in 0 W/m2
21:46 60.1 °F 57.7 °F 30.05 in SSW 9.0 mph 19.0 mph 92 % 0.01 in 0 W/m2
21:51 60.1 °F 57.7 °F 30.06 in SSW 9.0 mph 16.0 mph 92 % 0.01 in 0 W/m2
21:56 60.1 °F 57.7 °F 30.06 in SSW 9.0 mph 19.0 mph 92 % 0.01 in 0 W/m2
22:01 60.1 °F 57.7 °F 30.06 in SSW 9.0 mph 19.0 mph 92 % 0.01 in 0 W/m2
22:06 60.1 °F 57.4 °F 30.06 in SSW 8.0 mph 16.0 mph 91 % 0.01 in 0 W/m2
22:09 60.1 °F 57.4 °F 30.06 in SSW 8.0 mph 16.0 mph 91 % 0.01 in 0 W/m2
22:14 60.1 °F 57.7 °F 30.06 in SSW 7.0 mph 15.0 mph 92 % 0.01 in 0 W/m2
22:19 60.1 °F 57.4 °F 30.06 in SSW 7.0 mph 15.0 mph 91 % 0.01 in 0 W/m2
22:24 60.1 °F 57.4 °F 30.06 in SSW 7.0 mph 14.0 mph 91 % 0.00 in 0 W/m2
22:29 60.1 °F 57.4 °F 30.06 in SSW 8.0 mph 21.0 mph 91 % 0.00 in 0 W/m2
22:34 60.1 °F 57.4 °F 30.06 in SSW 9.0 mph 23.0 mph 91 % 0.00 in 0 W/m2
22:39 60.1 °F 57.4 °F 30.06 in SSW 9.0 mph 23.0 mph 91 % 0.00 in 0 W/m2
22:44 60.1 °F 57.4 °F 30.06 in SSW 9.0 mph 19.0 mph 91 % 0.00 in 0 W/m2
22:49 60.1 °F 57.4 °F 30.06 in SSW 9.0 mph 19.0 mph 91 % 0.00 in 0 W/m2
22:54 60.1 °F 57.4 °F 30.06 in SSW 8.0 mph 25.0 mph 91 % 0.00 in 0 W/m2
22:59 60.3 °F 57.6 °F 30.06 in SSW 9.0 mph 25.0 mph 91 % 0.00 in 0 W/m2
23:04 60.3 °F 57.3 °F 30.06 in SSW 9.0 mph 24.0 mph 90 % 0.00 in 0 W/m2
23:09 60.4 °F 57.5 °F 30.06 in SSW 8.0 mph 24.0 mph 90 % 0.00 in 0 W/m2
23:14 60.4 °F 57.5 °F 30.06 in SSW 7.0 mph 18.0 mph 90 % 0.00 in 0 W/m2
23:19 60.3 °F 57.3 °F 30.06 in SSW 7.0 mph 18.0 mph 90 % 0.00 in 0 W/m2
23:24 60.4 °F 57.5 °F 30.06 in SSW 7.0 mph 16.0 mph 90 % 0.00 in 0 W/m2
23:29 60.4 °F 57.5 °F 30.06 in SSW 6.0 mph 16.0 mph 90 % 0.00 in 0 W/m2
23:34 60.4 °F 57.5 °F 30.06 in SSW 7.0 mph 15.0 mph 90 % 0.00 in 0 W/m2
23:39 60.4 °F 57.5 °F 30.06 in SSW 9.0 mph 18.0 mph 90 % 0.00 in 0 W/m2
23:44 60.4 °F 57.2 °F 30.06 in SW 10.0 mph 22.0 mph 89 % 0.00 in 0 W/m2
23:49 60.4 °F 57.2 °F 30.06 in SW 10.0 mph 22.0 mph 89 % 0.00 in 0 W/m2
23:54 60.4 °F 57.2 °F 30.06 in SW 9.0 mph 20.0 mph 89 % 0.00 in 0 W/m2
23:59 60.6 °F 57.4 °F 30.06 in SW 10.0 mph 20.0 mph 89 % 0.00 in 0 W/m2
Delerius-Weather
Compliments of Weather Underground - 2.25 mb

Data updates at regular intervals.